El Centro, CA

1:58 PM PDT on August 22, 2017 (GMT -0700)
El Centro Naval Air Facility

Weather History for KNJK - October, 2013

Change the Weather History Date:

Tuesday, October 1, 2013

  Actual Average Record
Temperature  
Mean Temperature 78 °F -  
Max Temperature 96 °F 95 °F 109 °F (2012)
Min Temperature 60 °F 68 °F 60 °F (2013)
Cooling Degree Days 12    
Growing Degree Days 28 (Base 50)    
Moisture  
Dew Point 43 °F    
Average Humidity 32    
Maximum Humidity 72    
Minimum Humidity 14    
Precipitation  
Precipitation 0.00 in - - ()
Sea Level Pressure  
Sea Level Pressure 29.85 in    
Wind  
Wind Speed 6 mph (South)    
Max Wind Speed 10 mph    
Max Gust Speed -    
Visibility 10 miles    
Events      
Averages and records for this station are not official NWS values.
T = Trace of Precipitation, MM = Missing Value Source: NWS Daily Summary

Daily Weather History Graph

Daily Weather History Graph

Search for Another Location

Airport or City:

Trip Planner

Search our weather history database for the weather conditions in past years. The results will help you decide how hot, cold, wet, or windy it might be!

Date:

Astronomy

Oct. 01, 2013 Rise Set
Actual Time 6:37 AM PDT 6:26 PM PDT
Civil Twilight 6:12 AM PDT 6:51 PM PDT
Nautical Twilight 5:43 AM PDT 7:20 PM PDT
Astronomical Twilight 5:15 AM PDT 7:48 PM PDT
Moon 3:24 AM PDT (10/1) 4:25 PM PDT (10/1)
Length of Visible Light 12h 39m
Length of Day
11h 49m
Waning Crescent, 11% of the Moon is Illuminated
Oct 1
Waning Crescent
Oct 4
New
Oct 11
First Quarter
Oct 18
Full
Oct 26
Last Quarter

Hourly Weather History & Observations

Time (PDT) Temp. Dew Point Humidity Pressure Visibility Wind Dir Wind Speed Gust Speed Precip Events Conditions
12:56 AM 72.0 °F 33.1 °F 24% 29.83 in 10.0 mi WSW 9.2 mph - N/A   Clear
1:56 AM 66.9 °F 30.0 °F 25% 29.84 in 10.0 mi West 9.2 mph - N/A   Clear
2:56 AM 64.9 °F 32.0 °F 29% 29.84 in 10.0 mi WNW 6.9 mph - N/A   Clear
3:56 AM 64.0 °F 35.1 °F 34% 29.84 in 10.0 mi Variable 3.5 mph - N/A   Clear
4:56 AM 62.1 °F 42.1 °F 48% 29.85 in 10.0 mi South 5.8 mph - N/A   Clear
5:56 AM 61.0 °F 46.0 °F 58% 29.86 in 8.0 mi South 5.8 mph - N/A   Clear
6:56 AM 60.1 °F 51.1 °F 72% 29.87 in 5.0 mi SSE 4.6 mph - N/A   Haze
7:56 AM 66.0 °F 54.0 °F 65% 29.89 in 6.0 mi Calm Calm - N/A   Haze
8:56 AM 71.1 °F 55.9 °F 59% 29.91 in 8.0 mi SSE 4.6 mph - N/A   Clear
9:56 AM 79.0 °F 55.0 °F 44% 29.91 in 10.0 mi Calm Calm - N/A   Clear
10:56 AM 84.9 °F 50.0 °F 30% 29.91 in 10.0 mi SE 6.9 mph - N/A   Clear
11:56 AM 88.0 °F 41.0 °F 19% 29.89 in 10.0 mi Variable 4.6 mph - N/A   Clear
12:56 PM 93.0 °F 41.0 °F 16% 29.87 in 10.0 mi Variable 4.6 mph - N/A   Clear
1:56 PM 95.0 °F 39.9 °F 15% 29.84 in 10.0 mi Calm Calm - N/A   Clear
2:56 PM 95.0 °F 41.0 °F 15% 29.82 in 10.0 mi ENE 5.8 mph - N/A   Clear
3:56 PM 95.0 °F 39.0 °F 14% 29.80 in 10.0 mi SSE 6.9 mph - N/A   Clear
4:56 PM 95.0 °F 41.0 °F 15% 29.78 in 10.0 mi ESE 9.2 mph - N/A   Clear
5:56 PM 91.9 °F 45.0 °F 20% 29.78 in 10.0 mi ESE 6.9 mph - N/A   Clear
6:56 PM 84.0 °F 46.0 °F 26% 29.79 in 10.0 mi Variable 4.6 mph - N/A   Clear
7:56 PM 81.0 °F 46.0 °F 29% 29.81 in 10.0 mi South 8.1 mph - N/A   Clear
8:56 PM 84.0 °F 37.0 °F 19% 29.83 in 10.0 mi SSW 6.9 mph - N/A   Clear
9:56 PM 81.0 °F 41.0 °F 24% 29.85 in 10.0 mi SW 9.2 mph - N/A   Clear
10:56 PM 75.9 °F 39.0 °F 26% 29.84 in 10.0 mi West 10.4 mph - N/A   Clear
11:56 PM 72.0 °F 39.9 °F 31% 29.84 in 10.0 mi SW 4.6 mph - N/A   Clear